Knoxville, TN

5:00 AM EDT on July 23, 2017 (GMT -0400)
McGhee Tyson

Weather History for KTYS - November, 2012

Change the Weather History Date:

Wednesday, November 7, 2012

  Actual Average Record
Temperature  
Mean Temperature 47 °F 53 °F  
Max Temperature 50 °F 64 °F 79 °F (1996)
Min Temperature 43 °F 42 °F 21 °F (1967)
Degree Days  
Heating Degree Days 18 12  
Month to date heating degree days 114 81  
Since 1 July heating degree days 350 300  
Cooling Degree Days 0 0  
Month to date cooling degree days 0 0  
Year to date cooling degree days 1725 1523  
Moisture  
Dew Point 41 °F    
Average Humidity 86    
Maximum Humidity 100    
Minimum Humidity 71    
Precipitation  
Precipitation 0.20 in 0.11 in 1.97 in (1885)
Month to date precipitation 0.31 0.80  
Year to date precipitation 46.71 40.15  
Snow  
Snow 0.00 in 0.00 in - ()
Month to date snowfall 0.0 0.0  
Since 1 July snowfall 0.0 0.0  
Since 1 September snowfall 0.0 0.0  
Snow Depth 0.00 in    
Sea Level Pressure  
Sea Level Pressure 29.93 in    
Wind  
Wind Speed 3 mph (WSW)    
Max Wind Speed 8 mph    
Max Gust Speed 9 mph    
Visibility 8 miles    
Events Rain    
T = Trace of Precipitation, MM = Missing Value Source: NWS Daily Summary

Daily Weather History Graph

Daily Weather History Graph

Search for Another Location

Airport or City:

Trip Planner

Search our weather history database for the weather conditions in past years. The results will help you decide how hot, cold, wet, or windy it might be!

Date:

Astronomy

Nov. 07, 2012 Rise Set
Actual Time 7:04 AM EST 5:34 PM EST
Civil Twilight 6:37 AM EST 6:01 PM EST
Nautical Twilight 6:07 AM EST 6:31 PM EST
Astronomical Twilight 5:37 AM EST 7:01 PM EST
Moon 12:10 AM EST (11/7) 1:30 PM EST (11/7)
Length of Visible Light 11h 23m
Length of Day
10h 29m
Last Quarter, 43% of the Moon is Illuminated
Nov 7
Last Quarter
Nov 13
New
Nov 20
First Quarter
Nov 28
Full
Dec 6
Last Quarter

Hourly Weather History & Observations

Time (EST) Temp. Windchill Dew Point Humidity Pressure Visibility Wind Dir Wind Speed Gust Speed Precip Events Conditions
12:53 AM 46.0 °F 43.1 °F 43.0 °F 89% 29.91 in 4.0 mi SW 5.8 mph - 0.03 in Rain Light Rain
1:09 AM 44.6 °F 42.2 °F 42.8 °F 93% 29.91 in 5.0 mi SW 4.6 mph - 0.01 in Rain Light Rain
1:49 AM 44.6 °F 43.1 °F 44.6 °F 100% 29.90 in 5.0 mi SSW 3.5 mph - 0.04 in Rain Light Rain
1:53 AM 45.0 °F 42.6 °F 44.1 °F 97% 29.90 in 5.0 mi SSW 4.6 mph - 0.04 in Rain Light Rain
2:00 AM 44.6 °F 42.2 °F 44.6 °F 100% 29.90 in 5.0 mi SSW 4.6 mph - 0.01 in Rain Light Rain
2:27 AM 44.6 °F 42.2 °F 44.6 °F 100% 29.89 in 6.0 mi SSW 4.6 mph - 0.02 in Rain Light Rain
2:53 AM 45.0 °F 42.6 °F 44.1 °F 97% 29.89 in 5.0 mi SSW 4.6 mph - 0.04 in Rain Light Rain
3:03 AM 44.6 °F 42.2 °F 44.6 °F 100% 29.89 in 5.0 mi SSW 4.6 mph - 0.00 in Rain Light Rain
3:53 AM 45.0 °F 43.5 °F 44.1 °F 97% 29.88 in 6.0 mi SW 3.5 mph - 0.04 in Rain Light Rain
4:00 AM 46.4 °F 44.3 °F 44.6 °F 93% 29.87 in 6.0 mi SW 4.6 mph - 0.00 in Rain Light Rain
4:12 AM 44.6 °F 41.4 °F 44.6 °F 100% 29.87 in 6.0 mi SSW 5.8 mph - 0.00 in Rain Light Rain
4:30 AM 46.4 °F 42.4 °F 44.6 °F 93% 29.87 in 4.0 mi SW 8.1 mph - 0.01 in Rain Rain
4:41 AM 44.6 °F 41.4 °F 42.8 °F 93% 29.87 in 7.0 mi West 5.8 mph - 0.03 in Rain Light Rain
4:53 AM 45.0 °F 41.8 °F 43.0 °F 93% 29.88 in 10.0 mi West 5.8 mph - 0.03 in Rain Light Rain
5:02 AM 44.6 °F 42.2 °F 42.8 °F 93% 29.88 in 7.0 mi West 4.6 mph - 0.00 in Rain Rain
5:07 AM 44.6 °F 42.2 °F 42.8 °F 93% 29.88 in 7.0 mi West 4.6 mph - 0.01 in Rain Light Rain
5:20 AM 44.6 °F 41.4 °F 42.8 °F 93% 29.88 in 7.0 mi West 5.8 mph - 0.01 in Rain Light Rain
5:31 AM 44.6 °F 40.7 °F 42.8 °F 93% 29.88 in 9.0 mi West 6.9 mph - 0.01 in Rain Light Rain
5:53 AM 44.1 °F 41.5 °F 41.0 °F 89% 29.88 in 5.0 mi West 4.6 mph - 0.01 in Rain Light Rain
6:53 AM 44.1 °F 42.5 °F 41.0 °F 89% 29.89 in 4.0 mi WSW 3.5 mph - 0.00 in Rain Light Rain
7:22 AM 44.6 °F 40.7 °F 41.0 °F 87% 29.89 in 4.0 mi WSW 6.9 mph - 0.00 in Rain Light Rain
7:53 AM 44.1 °F 40.8 °F 41.0 °F 89% 29.91 in 5.0 mi WSW 5.8 mph - 0.01 in Rain Light Rain
8:30 AM 44.6 °F 43.1 °F 41.0 °F 87% 29.92 in 6.0 mi West 3.5 mph - 0.00 in   Overcast
8:53 AM 44.1 °F - 41.0 °F 89% 29.92 in 6.0 mi Calm Calm - 0.00 in   Overcast
9:02 AM 44.6 °F 43.1 °F 41.0 °F 87% 29.92 in 10.0 mi West 3.5 mph - N/A   Overcast
9:53 AM 45.0 °F - 41.0 °F 86% 29.93 in 7.0 mi Calm Calm - 0.00 in   Overcast
10:31 AM 46.4 °F - 39.2 °F 76% 29.93 in 7.0 mi Calm Calm - N/A   Overcast
10:53 AM 46.0 °F - 41.0 °F 83% 29.93 in 10.0 mi Calm Calm - N/A   Overcast
11:32 AM 46.4 °F - 39.2 °F 76% 29.93 in 10.0 mi Calm Calm - N/A   Overcast
11:53 AM 46.0 °F - 41.0 °F 83% 29.93 in 10.0 mi Calm Calm - N/A   Overcast
12:53 PM 46.9 °F - 39.9 °F 77% 29.91 in 10.0 mi Calm Calm - N/A   Overcast
1:53 PM 46.9 °F - 39.9 °F 77% 29.91 in 10.0 mi Calm Calm - N/A   Overcast
2:53 PM 48.0 °F - 39.9 °F 74% 29.92 in 10.0 mi Calm Calm - N/A   Overcast
3:43 PM 48.2 °F - 39.2 °F 71% 29.93 in 10.0 mi North 4.6 mph - N/A   Overcast
3:53 PM 48.9 °F - 39.9 °F 71% 29.94 in 10.0 mi NNE 3.5 mph - N/A   Overcast
4:09 PM 48.2 °F - 41.0 °F 76% 29.94 in 10.0 mi Calm Calm - N/A   Overcast
4:53 PM 48.9 °F - 39.0 °F 69% 29.96 in 10.0 mi NNW 3.5 mph - N/A   Overcast
5:53 PM 48.0 °F - 39.0 °F 71% 29.99 in 10.0 mi NNW 4.6 mph - N/A   Overcast
6:53 PM 48.0 °F - 39.0 °F 71% 30.01 in 10.0 mi NNW 3.5 mph - N/A   Overcast
7:53 PM 46.9 °F - 39.0 °F 74% 30.03 in 10.0 mi NNW 5.8 mph - N/A   Overcast
8:53 PM 46.0 °F 43.9 °F 37.9 °F 73% 30.05 in 10.0 mi North 4.6 mph - N/A   Overcast
9:53 PM 46.0 °F 44.8 °F 37.9 °F 73% 30.07 in 10.0 mi NE 3.5 mph - N/A   Mostly Cloudy
10:53 PM 45.0 °F 42.6 °F 37.9 °F 76% 30.08 in 10.0 mi NNE 4.6 mph - N/A   Overcast
11:53 PM 44.1 °F - 37.0 °F 76% 30.09 in 10.0 mi Calm Calm - N/A   Partly Cloudy